Regional Weather Roundup
Issued by NWS Newport/Morehead, NC

Current Version | Previous Version | Graphics & Text | Print | Product List | Glossary Off
Versions: 1 2 3 4 5 6 7 8 9 10 11 12 13 14 15 16 17 18 19 20 21 22 23 24 25 26 27 28 29 30 31 32 33 34 35 36 37 38 39 40 41 42 43 44 45 46 47 48 49 50

812
ASUS42 KMHX 111125
RWRMHX
WEATHER ROUNDUP FOR EASTERN NORTH CAROLINA
NATIONAL WEATHER SERVICE NEWPORT/MOREHEAD CITY NC
600 AM EST THU FEB 11 2016

NOTE: "FAIR" INDICATES FEW OR NO CLOUDS BELOW 12,000 FEET
WITH NO SIGNIFICANT WEATHER AND/OR OBSTRUCTIONS TO VISIBILITY

NCZ015>017-031-032-045>047-102-103-111200-
NORTH COAST

CITY           SKY/WX    TMP DP  RH WIND       PRES   REMARKS
EDENTON        CLEAR     27  10  48 NW9       30.15R
ELIZABETH CITY CLEAR     23  10  57 W10       30.12R WCI  12
KITTY HAWK     SUNNY     27  11  51 W13G20    30.09R WCI  16
MANTEO         CLEAR     27  10  47 NW7G17    30.12R

$$

NCZ045>047-081-094-103-104-111200-
CENTRAL COAST

CITY           SKY/WX    TMP DP  RH WIND       PRES   REMARKS
FRISCO         CLEAR     29  13  51 NW12G25   30.12R WCI  19
SWANQUARTER      N/A     25 N/A N/A W7        30.12R

$$

NCZ095-097-098-100-101-111200-
SOUTHERN COAST

CITY           SKY/WX    TMP DP  RH WIND       PRES   REMARKS
BEAUFORT       CLEAR     28  13  53 W14       30.17R WCI  17
CEDAR ISLAND     N/A     28 N/A N/A W5G20     30.21R
JACKSONVILLE   PTCLDY    24  15  68 W5        30.18R
PINEY ISLAND   SUNNY    N/A N/A N/A NW12      30.15R
WILMINGTON     CLEAR     28  13  53 N7        30.17R


$$

NCZ011>013-027>030-043-044-078>080-089-090>093-098-111200-
COASTAL PLAIN

CITY           SKY/WX    TMP DP  RH WIND       PRES   REMARKS
AHOSKIE        CLEAR     20  10  64 CALM      30.15R
CLINTON        PTCLDY    24  15  68 CALM      30.19R
ELIZABETHTOWN  CLEAR     24  16  71 CALM      30.18R
GOLDSBORO      NOT AVBL
GREENVILLE     CLEAR     27  12  54 W6        30.18R
HAVELOCK       PTCLDY    27  12  53 W9        30.17R
KENANSVILLE    PTCLDY    24  13  61 CALM      30.18S
KINSTON        NOT AVBL
NEW BERN       CLEAR     26  10  50 W9        30.18R
RICHLANDS      CLEAR     25  10  54 W3        30.19R
ROCKY MOUNT    CLEAR     24   7  48 W8        30.16R
WASHINGTON     CLEAR     24  10  56 CALM      30.17R
WHITEVILLE     CLEAR     25  19  80 CALM      30.18R

$$

AMZ130-135-150-152-154-156-158-170-250-252-270-ANZ085-086-088-633-658-670-111200-
MARINE OBSERVATIONS

STATION/POSITION TIME  TEMP    WIND        PRES    WAVE   SWELL
                       AIR SEA DIR/SP/G            HT/PER HT/PER
                 (UTC) (F)     (DEG/KT/KT) (MB)    (FT/S) (FT/S)
CHESAPEAKE LIGHT 1100   28     290/ 21/ 23 1018.7
64 E VA BEACH    1050   33 49  310/ 21/ 27 1016.3    8/ 7
DUCK             1100   26     290/ 19/ 23 1018.7
2 E DUCK         1011      44                N/A     3/13   2/13
OREGON INLET     1100   28 42  280/ 16/ 25 1019.4
13E OREGON INLT  1100      47                N/A     5/ 5   2/12
HATTERAS CG      1100   30 46  300/ 20/ 26 1019.8
DIAMOND BUOY     1050   34 71  310/ 23/ 29 1019.5    7/ 8   2/13
CAPE LOOKOUT     NOT AVBL
BEAUFORT LAB     1100   29 44  310/  6/ 11 1020.5
30 SE NEW RVR IN 1108   36 58              1020.5
30 SE NEW RVR IN 1025      58                N/A     7/ 8   2/13
27 SE WRIGHTSVLE 1108   37 61  360/ 17/ 23 1019.6
5 SE WRIGHTSVLE  1008   34 50  330/ 16/ 21 1021.3
225 S CAPE HAT   1050   52 68  290/ 25/ 31   N/A    12/ 9   8/ 9
41 SE CHARLESTON 1050   44 63  290/ 23/ 29 1022.1    8/ 7

$$




USA.gov is the U.S. government's official web portal to all federal, state and local government web resources and services.